TimeCDT,TemperatureF,Dew PointF,Humidity,Sea Level PressureIn,VisibilityMPH,Wind Direction,Wind SpeedMPH,Gust SpeedMPH,PrecipitationIn,Events,Conditions,WindDirDegrees,DateUTC
12:52 AM,69.1,62.1,78,29.99,10.0,SE,10.4,-,N/A,,Clear,130,2013-06-18 05:52:00
1:52 AM,69.1,62.1,78,29.97,10.0,SE,11.5,-,N/A,,Clear,140,2013-06-18 06:52:00
2:52 AM,68.0,62.1,81,29.97,10.0,SSE,10.4,-,N/A,,Clear,150,2013-06-18 07:52:00
3:52 AM,66.0,62.1,87,29.98,10.0,South,5.8,-,N/A,,Clear,190,2013-06-18 08:52:00
4:52 AM,64.9,61.0,87,29.99,10.0,SSW,8.1,-,N/A,,Clear,210,2013-06-18 09:52:00
5:52 AM,66.0,62.1,87,29.99,10.0,WSW,5.8,-,N/A,,Clear,240,2013-06-18 10:52:00
6:52 AM,64.9,62.1,90,30.01,8.0,SSW,5.8,-,N/A,,Clear,200,2013-06-18 11:52:00
7:52 AM,69.1,63.0,81,30.01,9.0,SSW,4.6,-,N/A,,Clear,210,2013-06-18 12:52:00
8:52 AM,73.9,63.0,68,30.02,10.0,South,6.9,-,N/A,,Clear,180,2013-06-18 13:52:00
9:52 AM,77.0,61.0,58,30.02,10.0,South,6.9,-,N/A,,Clear,190,2013-06-18 14:52:00
10:52 AM,80.1,57.0,45,30.00,10.0,Variable,4.6,-,N/A,,Clear,0,2013-06-18 15:52:00
11:52 AM,82.0,57.0,42,29.99,10.0,South,5.8,-,N/A,,Partly Cloudy,190,2013-06-18 16:52:00
12:52 PM,82.9,55.9,39,29.98,10.0,South,4.6,-,N/A,,Partly Cloudy,170,2013-06-18 17:52:00
1:52 PM,84.9,54.0,34,29.96,10.0,ESE,5.8,-,N/A,,Clear,120,2013-06-18 18:52:00
2:52 PM,86.0,55.0,35,29.94,10.0,SSE,9.2,-,N/A,,Clear,150,2013-06-18 19:52:00
3:52 PM,82.0,55.0,39,29.92,10.0,South,10.4,-,N/A,,Clear,170,2013-06-18 20:52:00
4:52 PM,86.0,55.0,35,29.89,10.0,SSE,11.5,-,N/A,,Clear,150,2013-06-18 21:52:00
5:52 PM,86.0,54.0,33,29.88,10.0,SSE,17.3,24.2,N/A,,Clear,160,2013-06-18 22:52:00
6:52 PM,84.9,55.0,36,29.86,10.0,SSE,17.3,-,N/A,,Clear,150,2013-06-18 23:52:00
7:52 PM,81.0,55.9,42,29.88,10.0,SE,15.0,-,N/A,,Clear,140,2013-06-19 00:52:00
8:52 PM,77.0,57.9,52,29.89,10.0,SE,9.2,-,N/A,,Clear,130,2013-06-19 01:52:00
9:52 PM,73.9,59.0,59,29.91,10.0,ESE,9.2,-,N/A,,Clear,120,2013-06-19 02:52:00
10:52 PM,68.0,57.0,68,29.91,10.0,ESE,11.5,-,N/A,,Clear,110,2013-06-19 03:52:00
11:52 PM,66.9,57.9,73,29.92,10.0,ESE,10.4,-,N/A,,Clear,110,2013-06-19 04:52:00